Weather Roundup
Issued by NWS Springfield, MO

Home | Current Version | Previous Version | Text Only | Print | Product List | Glossary On
Versions: 1 2 3 4 5 6 7 8 9 10 11 12 13 14 15 16 17 18 19 20 21 22 23 24 25 26 27 28 29 30 31 32 33 34 35 36 37 38 39 40 41 42 43 44 45 46 47 48 49 50
000
NZUS99 KSGF 041357
HRRSGF

HOURLY WEATHER
NATIONAL WEATHER SERVICE SPRINGFIELD MO
800 AM CST SUN DEC 04 2016

......SGF CWA......

CITY           SKY/WX    TMP DP  RH WIND       PRES   REMARKS
SPRINGFIELD    LGT RAIN  38  37  97 S7        30.00R FOG     WCI  33
JOPLIN         LGT RAIN  40  40 100 CALM      30.03R FOG
WEST PLAINS    CLOUDY    37  36  96 S3        30.01R FOG
ROLLA          MIX PCPN  36  35  96 SE5       29.98S VSB 1   WCI  32
BRANSON        LGT RAIN  37  37 100 CALM      30.02R FOG

......SURROUNDING SGF CWA......

CITY           SKY/WX    TMP DP  RH WIND       PRES   REMARKS
CHANUTE        CLOUDY    41  39  93 CALM      30.02S
PARSONS        LGT RAIN  41  41 100 CALM      30.04R
COFFEYVILLE    CLOUDY    42  42 100 CALM      30.03S
EMPORIA        CLOUDY    37  36  96 W3        30.02R
HARRISON AR    CLOUDY    38  38 100 CALM      30.02R FOG

......KANSAS AND MISSOURI......

CITY           SKY/WX    TMP DP  RH WIND       PRES   REMARKS
KANSAS CTY INT LGT RAIN  37  34  89 SW6       30.00S WCI  32
SEDALIA        LGT SNOW  36  34  92 S3        30.02S FOG
ST JOSEPH      LGT RAIN  36  34  92 W7        30.02R WCI  30
ST LOUIS       LGT RAIN  38  33  82 E9        30.02F WCI  31
WICHITA        PTCLDY    37  36  96 W3        30.04R
TOPEKA         CLOUDY    38  35  89 W3        30.03R
OLATHE         MIX PCPN  36  34  92 SW5       30.00S WCI  32

......TENNESSEE......

CITY           SKY/WX    TMP DP  RH WIND       PRES   REMARKS
MEMPHIS        NOT AVBL
NASHVILLE      CLOUDY    43  41  93 SE8       30.06F

......ARKANSAS.......

CITY           SKY/WX    TMP DP  RH WIND       PRES   REMARKS
FAYETTEVILLE   CLOUDY    41  41 100 SW3       30.02R FOG
FT SMITH       LGT RAIN  43  41  93 CALM      30.05R FOG
LITTLE ROCK    DRIZZLE   42  42 100 N6        30.01S FOG

......OKLAHOMA.......

CITY           SKY/WX    TMP DP  RH WIND       PRES   REMARKS
TULSA          CLOUDY    45  44  97 CALM      30.03S
PONCA CITY     MOCLDY    41  39  93 NW5       30.05R FOG
MCALESTER      CLOUDY    46  43  89 N3        30.04R
OKLAHOMA CITY  CLOUDY    44  42  93 N7        30.04R

......IOWA............

CITY           SKY/WX    TMP DP  RH WIND       PRES   REMARKS
DES MOINES     NOT AVBL
QUAD CITIES    SNOW      32  30  92 E9        30.07F VSB 1/2 WCI  24

......ILLINOIS........

CITY           SKY/WX    TMP DP  RH WIND       PRES   REMARKS
QUINCY         NOT AVBL
CHICAGO        CLOUDY    33  26  75 E3        30.15F




USA.gov is the U.S. government's official web portal to all federal, state and local government web resources and services.